This is the latest recevied weather packets stored in our database for station/object KF0WJA. If no packets are shown the sender has not sent any weather packets the latest 10 day(s).
| Time | Temp. | Humidity | Pressure | Rain* | Wind** | Luminosity | Snow |
|---|---|---|---|---|---|---|---|
| 1788534514 | 30.56° C | 58% | 1016.8 hPa | 0 mm | - | 379 W/m² | - |
| 1788534209 | 30.56° C | 58% | 1016.7 hPa | 0 mm | - | 356 W/m² | - |
| 1788533907 | 30° C | 59% | 1016.8 hPa | 0 mm | - | 347 W/m² | - |
| 1788533604 | 30° C | 59% | 1016.7 hPa | 0 mm | - | 323 W/m² | - |
| 1788533299 | 30° C | 61% | 1016.7 hPa | 0 mm | - | 311 W/m² | - |
| 1788532994 | 29.44° C | 61% | 1017 hPa | 0 mm | - | 301 W/m² | - |
| 1788532689 | 28.89° C | 62% | 1016.7 hPa | 0 mm | - | 286 W/m² | - |
| 1788532386 | 28.89° C | 62% | 1016.5 hPa | 0 mm | - | 273 W/m² | - |
| 1788532082 | 28.89° C | 63% | 1016.9 hPa | 0 mm | - | 231 W/m² | - |
| 1788531778 | 28.89° C | 65% | 1016.7 hPa | 0 mm | - | 243 W/m² | - |
| 1788531478 | 28.33° C | 66% | 1016.8 hPa | 0 mm | - | 216 W/m² | - |
| 1788531173 | 28.33° C | 66% | 1016.9 hPa | 0 mm | - | 203 W/m² | - |
| 1788530869 | 28.33° C | 68% | 1016.8 hPa | 0 mm | - | 189 W/m² | - |
| 1788530564 | 27.22° C | 69% | 1016.7 hPa | 0 mm | - | 186 W/m² | - |
| 1788530263 | 27.22° C | 69% | 1016.9 hPa | 0 mm | - | 152 W/m² | - |
| 1788529958 | 27.22° C | 71% | 1016.7 hPa | 0 mm | - | 143 W/m² | - |
| 1788529655 | 27.22° C | 72% | 1016.3 hPa | 0 mm | - | 128 W/m² | - |
| 1788529354 | 26.67° C | 72% | 1016.9 hPa | 0 mm | - | 111 W/m² | - |
| 1788529049 | 26.67° C | 74% | 1016.3 hPa | 0 mm | - | 104 W/m² | - |
| 1788528745 | 26.11° C | 76% | 1016.6 hPa | 0 mm | - | 41 W/m² | - |
| 1788528444 | 25.56° C | 77% | 1016.7 hPa | 0 mm | - | 40 W/m² | - |
| 1788528140 | 25.56° C | 78% | 1016.9 hPa | 0 mm | - | 39 W/m² | - |
| 1788527838 | 25.56° C | 79% | 1016.6 hPa | 0 mm | - | 36 W/m² | - |
| 1788527535 | 25° C | 80% | 1016.6 hPa | 0 mm | - | 35 W/m² | - |
| 1788527235 | 25° C | 80% | 1016.5 hPa | 0 mm | - | 34 W/m² | - |
* Rain latest hour (hover to see other rain measurements)
** Current wind speed in m/s (hover to see current wind gust speed)